| time (UTC) | temp F | wind direction | speed MPH | gust MPH | rain 1hr in | rain 24hr in | rain mn in | humidity % | barometer mb |
| 20260503215030 | 59 | 244 | 7.0 | 12.0 | 0.00 | 0.00 | 0.31 | 93 | 1011.0 |
| 20260503214030 | 59 | 217 | 6.0 | 10.0 | 0.00 | 0.00 | 0.29 | 93 | 1011.0 |
| 20260503213030 | 59 | 222 | 5.0 | 10.0 | 0.00 | 0.00 | 0.28 | 93 | 1010.9 |
| 20260503212029 | 59 | 207 | 3.0 | 7.0 | 0.00 | 0.00 | 0.28 | 92 | 1010.9 |
| 20260503211030 | 59 | 196 | 4.0 | 7.0 | 0.00 | 0.00 | 0.28 | 92 | 1011.0 |
| 20260503210029 | 59 | 192 | 2.0 | 6.0 | 0.00 | 0.00 | 0.24 | 92 | 1010.9 |
| 20260503205029 | 59 | 198 | 2.0 | 4.0 | 0.00 | 0.00 | 0.20 | 92 | 1010.9 |
| 20260503204030 | 59 | 183 | 1.0 | 3.0 | 0.00 | 0.00 | 0.20 | 92 | 1010.9 |
| 20260503203030 | 59 | 138 | 0.0 | 3.0 | 0.00 | 0.00 | 0.20 | 92 | 1010.8 |
| 20260503202030 | 59 | 156 | 0.0 | 1.0 | 0.00 | 0.00 | 0.20 | 92 | 1010.8 |
| 20260503201030 | 59 | 156 | 0.0 | 3.0 | 0.00 | 0.00 | 0.20 | 92 | 1010.7 |
| 20260503200029 | 59 | 164 | 0.0 | 3.0 | 0.00 | 0.00 | 0.20 | 92 | 1010.7 |
| 20260503195029 | 59 | 206 | 1.0 | 3.0 | 0.00 | 0.00 | 0.20 | 92 | 1010.7 |
| 20260503194030 | 59 | 153 | 1.0 | 3.0 | 0.00 | 0.00 | 0.20 | 91 | 1010.6 |
| 20260503193029 | 59 | 182 | 1.0 | 3.0 | 0.00 | 0.00 | 0.20 | 91 | 1010.5 |
| 20260503192029 | 59 | 182 | 1.0 | 4.0 | 0.00 | 0.00 | 0.20 | 92 | 1010.5 |
| 20260503191030 | 59 | 178 | 1.0 | 5.0 | 0.00 | 0.00 | 0.20 | 92 | 1010.4 |
| 20260503190030 | 59 | 195 | 3.0 | 7.0 | 0.00 | 0.00 | 0.20 | 92 | 1010.5 |
| 20260503185030 | 59 | 196 | 2.0 | 6.0 | 0.00 | 0.00 | 0.20 | 92 | 1010.3 |
| 20260503184030 | 59 | 192 | 3.0 | 7.0 | 0.00 | 0.00 | 0.20 | 92 | 1010.2 |
| 20260503183029 | 59 | 192 | 2.0 | 7.0 | 0.00 | 0.00 | 0.20 | 92 | 1010.0 |
| 20260503182030 | 59 | 209 | 3.0 | 7.0 | 0.00 | 0.00 | 0.20 | 92 | 1010.0 |
| 20260503181031 | 59 | 197 | 2.0 | 7.0 | 0.00 | 0.00 | 0.20 | 92 | 1009.9 |
| 20260503180029 | 59 | 195 | 2.0 | 5.0 | 0.00 | 0.00 | 0.20 | 93 | 1009.8 |
| 20260503175029 | 59 | 193 | 2.0 | 5.0 | 0.00 | 0.00 | 0.20 | 93 | 1009.8 |
| 20260503174030 | 59 | 195 | 3.0 | 10.0 | 0.00 | 0.00 | 0.20 | 93 | 1009.7 |
| 20260503173030 | 59 | 199 | 3.0 | 7.0 | 0.00 | 0.00 | 0.20 | 93 | 1009.8 |
| 20260503172030 | 59 | 203 | 2.0 | 6.0 | 0.00 | 0.00 | 0.20 | 93 | 1009.7 |
| 20260503171029 | 59 | 206 | 2.0 | 7.0 | 0.00 | 0.00 | 0.20 | 94 | 1009.7 |
| 20260503131029 | 59 | 245 | 9.0 | 11.0 | 0.00 | 0.00 | 0.15 | 93 | 1010.3 |
| 20260503081029 | 62 | 155 | 2.0 | 7.0 | 0.00 | 0.00 | 0.14 | 85 | 1010.1 |
| 20260503072030 | 60 | 142 | 1.0 | 5.0 | 0.00 | 0.00 | 0.14 | 91 | 1010.3 |
| 20260503071030 | 60 | 148 | 1.0 | 4.0 | 0.00 | 0.00 | 0.14 | 91 | 1010.3 |
| 20260503055030 | 56 | 120 | 1.0 | 7.0 | 0.00 | 0.00 | 0.14 | 92 | 1010.3 |
| 20260503054029 | 56 | 134 | 1.0 | 4.0 | 0.00 | 0.00 | 0.14 | 92 | 1010.3 |
| 20260503053029 | 56 | 128 | 0.0 | 7.0 | 0.00 | 0.00 | 0.14 | 92 | 1010.4 |
| 20260503052029 | 56 | 108 | 2.0 | 7.0 | 0.00 | 0.00 | 0.14 | 92 | 1010.4 |
| 20260503051030 | 56 | 38 | 1.0 | 6.0 | 0.00 | 0.00 | 0.14 | 92 | 1010.4 |
| 20260503050030 | 56 | 96 | 1.0 | 5.0 | 0.00 | 0.00 | 0.14 | 92 | 1010.4 |
| 20260503045029 | 56 | 160 | 1.0 | 6.0 | 0.00 | 0.00 | 0.13 | 92 | 1010.5 |
| 20260503044030 | 56 | 352 | 0.0 | 5.0 | 0.00 | 0.00 | 0.13 | 92 | 1010.4 |
| 20260503043030 | 56 | 63 | 0.0 | 7.0 | 0.00 | 0.00 | 0.13 | 92 | 1010.4 |
| 20260503042030 | 56 | 98 | 1.0 | 8.0 | 0.00 | 0.00 | 0.13 | 92 | 1011.0 |
| 20260503041030 | 56 | 56 | 0.0 | 9.0 | 0.00 | 0.00 | 0.13 | 91 | 1011.2 |
| 20260503040029 | 55 | 109 | 2.0 | 6.0 | 0.00 | 0.00 | 0.13 | 91 | 1011.4 |
| 20260503035030 | 56 | 187 | 1.0 | 3.0 | 0.00 | 0.00 | 0.13 | 91 | 1011.6 |
| 20260503034030 | 55 | 114 | 1.0 | 6.0 | 0.00 | 0.00 | 0.13 | 91 | 1011.5 |
| 20260503033030 | 55 | 113 | 2.0 | 6.0 | 0.00 | 0.00 | 0.13 | 91 | 1011.5 |
| 20260503032029 | 55 | 170 | 1.0 | 6.0 | 0.00 | 0.00 | 0.13 | 91 | 1011.5 |
| 20260503031030 | 55 | 112 | 2.0 | 8.0 | 0.00 | 0.00 | 0.13 | 91 | 1011.3 |
| 20260503030030 | 55 | 85 | 1.0 | 6.0 | 0.00 | 0.00 | 0.13 | 91 | 1011.3 |
| 20260503025029 | 55 | 50 | 1.0 | 7.0 | 0.00 | 0.00 | 0.13 | 91 | 1011.4 |
| 20260503024029 | 55 | 132 | 0.0 | 5.0 | 0.00 | 0.00 | 0.13 | 91 | 1011.4 |
| 20260503023030 | 55 | 68 | 1.0 | 9.0 | 0.00 | 0.00 | 0.13 | 91 | 1011.3 |
| 20260503022029 | 55 | 80 | 1.0 | 8.0 | 0.00 | 0.00 | 0.13 | 91 | 1011.4 |
| 20260503021029 | 55 | 39 | 0.0 | 7.0 | 0.00 | 0.00 | 0.13 | 90 | 1011.4 |
| 20260503020030 | 56 | 143 | 0.0 | 6.0 | 0.00 | 0.00 | 0.13 | 90 | 1011.4 |
| 20260503015029 | 55 | 138 | 2.0 | 10.0 | 0.00 | 0.00 | 0.13 | 90 | 1011.3 |
| 20260503014029 | 56 | 178 | 1.0 | 9.0 | 0.00 | 0.00 | 0.13 | 90 | 1011.4 |
| 20260503013029 | 55 | 18 | 0.0 | 10.0 | 0.00 | 0.00 | 0.13 | 90 | 1011.5 |
| 20260503012030 | 55 | 93 | 1.0 | 12.0 | 0.00 | 0.00 | 0.13 | 90 | 1011.5 |
| 20260503011030 | 55 | 13 | 0.0 | 9.0 | 0.00 | 0.00 | 0.13 | 89 | 1011.6 |
| 20260503010029 | 56 | 75 | 1.0 | 9.0 | 0.00 | 0.00 | 0.13 | 90 | 1011.7 |
| 20260503005030 | 56 | 99 | 2.0 | 8.0 | 0.00 | 0.00 | 0.13 | 89 | 1011.7 |
| 20260503004029 | 56 | 111 | 1.0 | 9.0 | 0.00 | 0.00 | 0.13 | 89 | 1011.8 |
| 20260503003029 | 56 | 96 | 4.0 | 13.0 | 0.00 | 0.00 | 0.13 | 89 | 1011.7 |
| 20260503002030 | 56 | 91 | 5.0 | 9.0 | 0.00 | 0.00 | 0.13 | 89 | 1011.7 |
| 20260503001029 | 56 | 89 | 5.0 | 10.0 | 0.00 | 0.00 | 0.13 | 88 | 1011.9 |
| 20260503000030 | 56 | 70 | 7.0 | 11.0 | 0.00 | 0.00 | 0.13 | 88 | 1012.0 |
| 20260502235029 | 56 | 63 | 7.0 | 13.0 | 0.00 | 0.00 | 0.13 | 88 | 1012.4 |
| 20260502234030 | 57 | 74 | 6.0 | 13.0 | 0.00 | 0.00 | 0.11 | 87 | 1013.0 |
| 20260502233030 | 58 | 59 | 1.0 | 3.0 | 0.00 | 0.00 | 0.09 | 86 | 1013.7 |
| 20260502232030 | 58 | 59 | 0.0 | 2.0 | 0.00 | 0.00 | 0.08 | 86 | 1014.0 |
| 20260502231030 | 57 | 288 | 1.0 | 7.0 | 0.00 | 0.00 | 0.06 | 85 | 1014.1 |
| 20260502230029 | 57 | 192 | 2.0 | 13.0 | 0.00 | 0.00 | 0.05 | 84 | 1014.4 |
| 20260502225030 | 58 | 214 | 8.0 | 15.0 | 0.00 | 0.00 | 0.03 | 82 | 1014.8 |
| 20260502224029 | 58 | 219 | 10.0 | 21.0 | 0.00 | 0.00 | 0.01 | 81 | 1014.9 |
| 20260502223030 | 59 | 292 | 8.0 | 11.0 | 0.00 | 0.00 | 0.00 | 80 | 1013.8 |
| 20260502222029 | 59 | 233 | 0.0 | 8.0 | 0.00 | 0.00 | 0.00 | 78 | 1013.9 |
| 20260502221030 | 59 | 99 | 3.0 | 10.0 | 0.00 | 0.00 | 0.00 | 78 | 1013.6 |
| 20260502220029 | 59 | 131 | 1.0 | 11.0 | 0.00 | 0.00 | 0.00 | 78 | 1013.6 |